Knob Noster, MO

8:44 AM CST on February 06, 2016 (GMT -0600)
Whiteman Air Force Base

Weather History for KSZL - January, 2013

Change the Weather History Date:

Friday, January 4, 2013

  Actual Average Record
Temperature  
Mean Temperature 28 °F -  
Max Temperature 41 °F 37 °F 64 °F (1997)
Min Temperature 16 °F 21 °F -4 °F (1999)
Degree Days  
Heating Degree Days 36    
Moisture  
Dew Point 24 °F    
Average Humidity 85    
Maximum Humidity 99    
Minimum Humidity 57    
Precipitation  
Precipitation 0.00 in - - ()
Sea Level Pressure  
Sea Level Pressure 30.37 in    
Wind  
Wind Speed 7 mph (SW)    
Max Wind Speed 17 mph    
Max Gust Speed -    
Visibility 10 miles    
Events      
Averages and records for this station are not official NWS values.
T = Trace of Precipitation, MM = Missing Value Source: NWS Daily Summary

Daily Weather History Graph

Daily Weather History Graph

Search for Another Location

Airport or City:

Trip Planner

Search our weather history database for the weather conditions in past years. The results will help you decide how hot, cold, wet, or windy it might be!

Date:

Astronomy

Jan. 04, 2013 Rise Set
Actual Time 7:32 AM CST 5:06 PM CST
Civil Twilight 7:03 AM CST 5:35 PM CST
Nautical Twilight 6:29 AM CST 6:09 PM CST
Astronomical Twilight 5:57 AM CST 6:41 PM CST
Moon No Moon Rise 11:20 AM CST (1/4)
Length of Visible Light 10h 32m
Length of Day
9h 33m
Waning Gibbous, 55% of the Moon is Illuminated
Jan 4
Waning Gibbous
Jan 4
Last Quarter
Jan 11
New
Jan 18
First Quarter
Jan 26
Full

Hourly Weather History & Observations

Time (CST) Temp. Windchill Dew Point Humidity Pressure Visibility Wind Dir Wind Speed Gust Speed Precip Events Conditions
12:55 AM 21.4 °F 16.6 °F 21.2 °F 99% 30.42 in 10.0 mi SW 3.5 mph - N/A   Overcast
1:55 AM 21.2 °F 14.9 °F 21.0 °F 99% 30.42 in 10.0 mi West 4.6 mph - N/A   Partly Cloudy
2:55 AM 21.6 °F 16.8 °F 21.2 °F 99% 30.44 in 10.0 mi West 3.5 mph - N/A   Clear
3:55 AM 21.7 °F - 21.0 °F 97% 30.43 in 10.0 mi Calm Calm - N/A   Partly Cloudy
4:55 AM 20.3 °F 12.5 °F 20.1 °F 99% 30.41 in 10.0 mi SW 5.8 mph - N/A   Clear
5:55 AM 18.9 °F 10.8 °F 18.7 °F 99% 30.41 in 10.0 mi SW 5.8 mph - N/A   Clear
6:55 AM 16.7 °F 7.2 °F 16.5 °F 99% 30.42 in 10.0 mi SSW 6.9 mph - N/A   Clear
7:55 AM 17.4 °F 8.0 °F 17.2 °F 99% 30.43 in 9.0 mi SSW 6.9 mph - N/A   Clear
8:55 AM 23.2 °F 13.3 °F 22.8 °F 99% 30.43 in 10.0 mi SSW 9.2 mph - N/A   Clear
9:55 AM 29.8 °F 20.9 °F 27.3 °F 90% 30.43 in 10.0 mi SSW 10.4 mph - N/A   Clear
10:55 AM 32.5 °F 21.5 °F 25.3 °F 75% 30.43 in 10.0 mi SW 17.3 mph - N/A   Clear
11:55 AM 35.6 °F 25.9 °F 25.3 °F 66% 30.41 in 10.0 mi SW 16.1 mph - N/A   Clear
12:55 PM 38.1 °F 28.8 °F 26.2 °F 62% 30.36 in 10.0 mi SSW 17.3 mph - N/A   Clear
1:55 PM 39.4 °F 31.4 °F 26.2 °F 59% 30.35 in 10.0 mi SW 13.8 mph - N/A   Clear
2:55 PM 41.0 °F 34.3 °F 26.6 °F 57% 30.32 in 10.0 mi SSW 11.5 mph - N/A   Clear
3:55 PM 40.5 °F 34.1 °F 27.3 °F 59% 30.32 in 10.0 mi SSW 10.4 mph - N/A   Clear
4:55 PM 36.0 °F 29.0 °F 28.2 °F 73% 30.32 in 10.0 mi South 9.2 mph - N/A   Clear
5:55 PM 30.7 °F 22.6 °F 26.6 °F 85% 30.33 in 10.0 mi SSW 9.2 mph - N/A   Clear
6:55 PM 29.3 °F 20.8 °F 25.7 °F 86% 30.33 in 10.0 mi SSW 9.2 mph - N/A   Clear
7:55 PM 28.9 °F 20.4 °F 25.3 °F 86% 30.32 in 10.0 mi SSW 9.2 mph - N/A   Clear
8:55 PM 28.8 °F 19.5 °F 25.7 °F 88% 30.31 in 10.0 mi SSW 10.4 mph - N/A   Clear
9:55 PM 29.7 °F 20.7 °F 26.2 °F 87% 30.30 in 10.0 mi SSW 10.4 mph - N/A   Clear
10:55 PM 28.6 °F 19.3 °F 25.7 °F 89% 30.30 in 10.0 mi SSW 10.4 mph - N/A   Clear
11:55 PM 28.4 °F 19.7 °F 25.5 °F 89% 30.30 in 10.0 mi SSW 9.2 mph - N/A   Clear